Tracking 19920 objects as of 15-Oct-2019
HD Live streaming from Space Station
objects crossing your sky now

GORIZONT 32

Track GORIZONT 32 now!
GORIZONT 32 is classified as:


NORAD ID: 23880
Int'l Code: 1996-034A
Perigee: 35,764.5 km
Apogee: 35,869.3 km
Inclination: 14.4 °
Period: 1,437.3 minutes
Semi major axis: 42187 km
RCS: 17.7827 m2 (large)
Launch date: May 25, 1996
Source: Commonwealth of Independent States (former USSR) (CIS)
Launch site: TYURATAM MISSILE AND SPACE COMPLEX (TTMTR)

Telecommunications; augment television channels available to the people of Siberia.
aabbcc
Your satellite tracking list
Your tracking list is empty




NASA's NSSDC Master Catalog

Two Line Element Set (TLE):
1 23880U 96034A   19288.48418785  .00000092  00000-0  00000+0 0  9996
2 23880  14.3741  14.3963 0012426 314.6943  63.9874  1.00189299 85632
Source of the keplerian elements: AFSPC